KC7O Weather Reports


Display with metric or nautical units.
time (UTC)temp
F
wind
direction
speed
MPH
gust
MPH
rain 1hr
in
rain 24hr
in
rain mn
in
humidity
%
barometer
mb
20260902002823 82 276 0.0 5.0 0.00 0.00 0.00 45 1012.2
20260902002321 82 280 2.0 6.0 0.00 0.00 0.00 45 1012.2
20260902001821 82 199 1.0 6.0 0.00 0.00 0.00 44 1012.2
20260902001319 82 294 3.0 5.0 0.00 0.00 0.00 43 1012.2
20260902000857 82 274 1.0 8.0 0.00 0.00 0.00 44 1012.2
20260902000334 82 169 2.0 8.0 0.00 0.00 0.00 45 1012.2
20260901235833 82 274 3.0 6.0 0.00 0.00 0.00 44 1012.2
20260901235332 82 281 2.0 6.0 0.00 0.00 0.00 42 1012.3
20260901234333 82 146 2.0 5.0 0.00 0.00 0.00 41 1012.3
20260901233833 82 198 2.0 7.0 0.00 0.00 0.00 42 1012.3
20260901233319 83 208 4.0 7.0 0.00 0.00 0.00 41 1012.3
20260901232820 83 166 3.0 9.0 0.00 0.00 0.00 42 1012.3
20260901232359 83 244 2.0 9.0 0.00 0.00 0.00 43 1012.4
20260901231838 83 166 2.0 5.0 0.00 0.00 0.00 44 1012.3
20260901231333 84 275 2.0 5.0 0.00 0.00 0.00 44 1012.3
20260901230834 84 268 1.0 5.0 0.00 0.00 0.00 43 1012.3
20260901230332 84 183 3.0 6.0 0.00 0.00 0.00 44 1012.3
20260901225347 84 192 3.0 8.0 0.00 0.00 0.00 44 1012.4
20260901223319 85 237 2.0 9.0 0.00 0.00 0.00 45 1012.4
20260901222839 85 129 4.0 7.0 0.00 0.00 0.00 44 1012.4
20260901222320 86 214 3.0 10.0 0.00 0.00 0.00 44 1012.4
20260901221822 86 208 3.0 10.0 0.00 0.00 0.00 43 1012.4
20260901220819 87 178 3.0 6.0 0.00 0.00 0.00 41 1012.5
20260901220320 87 150 2.0 6.0 0.00 0.00 0.00 38 1012.5
20260901215820 87 157 2.0 6.0 0.00 0.00 0.00 38 1012.5
20260901215323 87 212 2.0 6.0 0.00 0.00 0.00 34 1012.5
20260901214825 87 264 2.0 4.0 0.00 0.00 0.00 34 1012.6
20260901214331 87 276 0.0 4.0 0.00 0.00 0.00 30 1012.6
20260901213849 88 276 1.0 4.0 0.00 0.00 0.00 30 1012.7
20260901213326 87 124 1.0 7.0 0.00 0.00 0.00 32 1012.7
20260901212823 87 247 2.0 7.0 0.00 0.00 0.00 32 1012.8
20260901212321 86 219 2.0 6.0 0.00 0.00 0.00 31 1012.8
20260901211822 86 158 2.0 6.0 0.00 0.00 0.00 34 1012.8
20260901211340 86 158 2.0 6.0 0.00 0.00 0.00 34 1012.9
20260901210837 87 257 2.0 6.0 0.00 0.00 0.00 33 1012.9
20260901210336 86 155 2.0 6.0 0.00 0.00 0.00 35 1012.9
20260901205858 86 215 4.0 6.0 0.00 0.00 0.00 36 1013.0
20260901205338 87 264 2.0 5.0 0.00 0.00 0.00 35 1013.0
20260901204838 87 191 2.0 4.0 0.00 0.00 0.00 32 1013.1
20260901204338 87 148 2.0 5.0 0.00 0.00 0.00 34 1013.2
20260901203900 87 214 3.0 5.0 0.00 0.00 0.00 35 1013.1
20260901203338 86 146 2.0 4.0 0.00 0.00 0.00 37 1013.2
20260901202834 86 101 2.0 7.0 0.00 0.00 0.00 36 1013.3
20260901202334 86 218 2.0 7.0 0.00 0.00 0.00 37 1013.3
20260901201856 86 193 2.0 6.0 0.00 0.00 0.00 37 1013.5
20260901201320 87 170 3.0 5.0 0.00 0.00 0.00 38 1013.5
20260901200821 86 141 2.0 4.0 0.00 0.00 0.00 41 1013.6
20260901195819 85 288 2.0 5.0 0.00 0.00 0.00 41 1013.8
20260901195319 86 176 1.0 4.0 0.00 0.00 0.00 40 1013.8
20260901194839 85 156 2.0 6.0 0.00 0.00 0.00 42 1013.9
20260901194359 85 247 2.0 6.0 0.00 0.00 0.00 41 1013.9
20260901193836 84 214 2.0 6.0 0.00 0.00 0.00 37 1013.9
20260901193357 84 162 2.0 4.0 0.00 0.00 0.00 38 1014.0
20260901192835 84 170 1.0 4.0 0.00 0.00 0.00 40 1014.0
20260901192332 83 143 1.0 6.0 0.00 0.00 0.00 39 1014.1
20260901191831 82 146 3.0 6.0 0.00 0.00 0.00 40 1014.2
20260901191329 82 146 2.0 5.0 0.00 0.00 0.00 42 1014.2
20260901190827 82 169 2.0 6.0 0.00 0.00 0.00 45 1014.2
20260901190324 82 143 1.0 6.0 0.00 0.00 0.00 44 1014.3
20260901185821 82 165 2.0 5.0 0.00 0.00 0.00 45 1014.2
20260901185321 82 211 1.0 6.0 0.00 0.00 0.00 47 1014.2
20260901184822 81 217 2.0 6.0 0.00 0.00 0.00 49 1014.2
20260901184327 81 141 2.0 5.0 0.00 0.00 0.00 51 1014.3
20260901183833 81 165 1.0 3.0 0.00 0.00 0.00 52 1014.3
20260901183338 81 169 1.0 5.0 0.00 0.00 0.00 53 1014.5
20260901182823 80 268 2.0 5.0 0.00 0.00 0.00 54 1014.4
20260901182347 80 137 2.0 5.0 0.00 0.00 0.00 55 1014.5
20260901181830 80 179 1.0 5.0 0.00 0.00 0.00 57 1014.5
20260901181337 80 155 2.0 4.0 0.00 0.00 0.00 57 1014.5
20260901180823 80 199 2.0 5.0 0.00 0.00 0.00 57 1014.4
20260901180327 79 226 2.0 5.0 0.00 0.00 0.00 57 1014.3
20260901175832 78 200 2.0 6.0 0.00 0.00 0.00 60 1014.4
20260901175322 78 223 2.0 6.0 0.00 0.00 0.00 60 1014.5
20260901174826 78 185 2.0 4.0 0.00 0.00 0.00 61 1014.4
20260901174351 77 178 1.0 4.0 0.00 0.00 0.00 63 1014.4
20260901172846 77 117 2.0 4.0 0.00 0.00 0.00 62 1014.2
20260901172323 76 147 1.0 4.0 0.00 0.00 0.00 62 1014.2
20260901171824 76 210 0.0 3.0 0.00 0.00 0.00 63 1014.2
20260901171323 76 179 2.0 3.0 0.00 0.00 0.00 62 1014.2
20260901170821 75 150 1.0 3.0 0.00 0.00 0.00 64 1014.1
20260901170338 75 153 1.0 3.0 0.00 0.00 0.00 63 1014.1
20260901165856 75 226 1.0 3.0 0.00 0.00 0.00 65 1014.2
20260901165333 74 188 0.0 3.0 0.00 0.00 0.00 67 1014.2
20260901164853 73 281 1.0 4.0 0.00 0.00 0.00 68 1014.2
20260901164329 73 44 1.0 3.0 0.00 0.00 0.00 68 1014.2
20260901163829 74 126 1.0 2.0 0.00 0.00 0.00 68 1014.2
20260901163328 74 161 1.0 3.0 0.00 0.00 0.00 69 1014.3
20260901162829 73 187 0.0 3.0 0.00 0.00 0.00 69 1014.3
20260901162328 73 148 0.0 3.0 0.00 0.00 0.00 72 1014.3
20260901161829 72 141 1.0 3.0 0.00 0.00 0.00 71 1014.2
20260901161327 72 82 1.0 3.0 0.00 0.00 0.00 71 1014.1
20260901160824 72 170 1.0 3.0 0.00 0.00 0.00 72 1014.2
20260901160325 72 136 0.0 3.0 0.00 0.00 0.00 70 1014.2
20260901155824 71 141 0.0 3.0 0.00 0.00 0.00 70 1014.1
20260901155326 71 106 0.0 1.0 0.00 0.00 0.00 71 1014.1
20260901154826 71 156 0.0 1.0 0.00 0.00 0.00 72 1014.1
20260901154327 71 167 0.0 1.0 0.00 0.00 0.00 74 1014.0
20260901153848 70 158 0.0 1.0 0.00 0.00 0.00 74 1014.1
20260901153326 70 176 0.0 1.0 0.00 0.00 0.00 76 1014.0
20260901152826 69 139 0.0 1.0 0.00 0.00 0.00 77 1014.0
20260901152327 69 211 0.0 3.0 0.00 0.00 0.00 76 1014.0
20260901151844 69 161 1.0 3.0 0.00 0.00 0.00 77 1014.0
20260901151321 69 170 1.0 2.0 0.00 0.00 0.00 80 1013.9
20260901150857 68 140 0.0 2.0 0.00 0.00 0.00 80 1013.8
20260901150332 68 153 1.0 3.0 0.00 0.00 0.00 80 1013.8
20260901145831 68 180 2.0 3.0 0.00 0.00 0.00 79 1013.7
20260901145333 68 141 0.0 2.0 0.00 0.00 0.00 81 1013.7
20260901144832 67 90 0.0 2.0 0.00 0.00 0.00 79 1013.7
20260901144352 67 140 0.0 2.0 0.00 0.00 0.00 82 1013.8
20260901143830 66 150 0.0 2.0 0.00 0.00 0.00 84 1013.8
20260901143329 66 149 1.0 2.0 0.00 0.00 0.00 83 1013.8
20260901142826 66 138 0.0 0.0 0.00 0.00 0.00 83 1013.6
20260901142325 65 132 0.0 0.0 0.00 0.00 0.00 88 1013.6
20260901141845 64 132 0.0 0.0 0.00 0.00 0.00 92 1013.5
20260901141326 62 132 0.0 0.0 0.00 0.00 0.00 92 1013.5
20260901140828 61 132 0.0 0.0 0.00 0.00 0.00 92 1013.5
20260901140327 61 132 0.0 0.0 0.00 0.00 0.00 92 1013.5
20260901135827 60 132 0.0 0.0 0.00 0.00 0.00 92 1013.3
20260901135326 60 132 0.0 0.0 0.00 0.00 0.00 92 1013.3
20260901134824 60 132 0.0 0.0 0.00 0.00 0.00 92 1013.2
20260901134327 60 132 0.0 0.0 0.00 0.00 0.00 92 1013.1
20260901133823 60 132 0.0 0.0 0.00 0.00 0.00 92 1013.0
20260901133343 60 132 0.0 0.0 0.00 0.00 0.00 92 1013.0
20260901132822 60 132 0.0 0.0 0.00 0.00 0.00 92 1012.9
20260901132321 60 132 0.0 0.0 0.00 0.00 0.00 92 1013.0
20260901131820 60 132 0.0 0.0 0.00 0.00 0.00 92 1012.9
20260901131320 60 132 0.0 0.0 0.00 0.00 0.00 92 1012.9
20260901130838 60 132 0.0 0.0 0.00 0.00 0.00 92 1012.8
20260901130320 60 132 0.0 0.0 0.00 0.00 0.00 92 1012.8
20260901125900 60 132 0.0 0.0 0.00 0.00 0.00 91 1012.9
20260901125320 60 132 0.0 0.0 0.00 0.00 0.00 92 1012.8
20260901124818 60 132 0.0 0.0 0.00 0.00 0.00 92 1012.8
20260901124359 60 132 0.0 0.0 0.00 0.00 0.00 92 1012.8
20260901123836 60 133 0.0 0.0 0.00 0.00 0.00 91 1012.8
20260901122822 60 132 0.0 0.0 0.00 0.00 0.00 91 1012.7
20260901122319 60 132 0.0 0.0 0.00 0.00 0.00 91 1012.6
20260901121856 61 132 0.0 0.0 0.00 0.00 0.00 91 1012.6
20260901121335 61 132 0.0 0.0 0.00 0.00 0.00 91 1012.6
20260901120856 61 132 0.0 0.0 0.00 0.00 0.00 91 1012.6
20260901120336 61 132 0.0 0.0 0.00 0.00 0.00 91 1012.6
20260901115836 61 133 0.0 0.0 0.00 0.00 0.00 91 1012.6
20260901115335 61 132 0.0 0.0 0.00 0.00 0.00 91 1012.6
20260901114836 61 133 0.0 0.0 0.00 0.00 0.00 91 1012.5
20260901114334 61 132 0.0 0.0 0.00 0.00 0.00 90 1012.5
20260901113835 61 132 0.0 0.0 0.00 0.00 0.00 90 1012.5
20260901113334 61 132 0.0 0.0 0.00 0.00 0.00 90 1012.6
20260901112833 61 132 0.0 0.0 0.00 0.00 0.00 90 1012.6
20260901112332 61 132 0.0 0.0 0.00 0.00 0.00 90 1012.7
20260901111853 61 132 0.0 0.0 0.00 0.00 0.00 90 1012.7
20260901111330 62 132 0.0 0.0 0.00 0.00 0.00 90 1012.8
20260901110849 62 132 0.0 0.0 0.00 0.00 0.00 90 1012.8
20260901110326 62 132 0.0 0.0 0.00 0.00 0.00 90 1012.8
20260901105832 61 132 0.0 0.0 0.00 0.00 0.00 89 1012.8
20260901105329 61 132 0.0 0.0 0.00 0.00 0.00 89 1012.8
20260901104830 62 132 0.0 0.0 0.00 0.00 0.00 89 1012.8
20260901104349 62 132 0.0 0.0 0.00 0.00 0.00 89 1012.9
20260901103828 62 132 0.0 0.0 0.00 0.00 0.00 89 1012.9
20260901103324 62 132 0.0 0.0 0.00 0.00 0.00 89 1013.0
20260901102821 62 132 0.0 0.0 0.00 0.00 0.00 89 1012.9
20260901102337 62 132 0.0 0.0 0.00 0.00 0.00 89 1012.9
20260901101834 62 132 0.0 0.0 0.00 0.00 0.00 89 1012.9
20260901101333 62 132 0.0 0.0 0.00 0.00 0.00 89 1012.9
20260901100854 62 132 0.0 0.0 0.00 0.00 0.00 88 1013.0
20260901100327 62 133 0.0 0.0 0.00 0.00 0.00 89 1013.0
20260901095824 62 132 0.0 0.0 0.00 0.00 0.00 89 1013.0
20260901095324 62 132 0.0 0.0 0.00 0.00 0.00 89 1013.0
20260901094823 62 132 0.0 0.0 0.00 0.00 0.00 88 1013.0
20260901094321 63 132 0.0 0.0 0.00 0.00 0.00 88 1012.9
20260901093820 63 132 0.0 0.0 0.00 0.00 0.00 88 1012.9
20260901093326 63 132 0.0 0.0 0.00 0.00 0.00 88 1012.8
20260901092821 63 132 0.0 0.0 0.00 0.00 0.00 89 1012.8
20260901092342 62 133 0.0 0.0 0.00 0.00 0.00 88 1012.8
20260901091842 62 133 0.0 0.0 0.00 0.00 0.00 88 1012.8
20260901091323 63 132 0.0 0.0 0.00 0.00 0.00 88 1012.9
20260901090820 63 133 0.0 0.0 0.00 0.00 0.00 89 1012.9
20260901090337 63 132 0.0 0.0 0.00 0.00 0.00 88 1012.8
20260901085836 63 133 0.0 0.0 0.00 0.00 0.00 88 1012.8
20260901085335 63 132 0.0 0.0 0.00 0.00 0.00 88 1012.8
20260901084830 63 132 0.0 0.0 0.00 0.00 0.00 88 1012.8
20260901084330 63 133 0.0 0.0 0.00 0.00 0.00 88 1012.9
20260901083825 63 133 0.0 0.0 0.00 0.00 0.00 88 1012.9
20260901083321 63 132 0.0 0.0 0.00 0.00 0.00 88 1013.0
20260901082820 63 133 0.0 0.0 0.00 0.00 0.00 87 1012.9
20260901082339 63 132 0.0 0.0 0.00 0.00 0.00 87 1012.8
20260901081835 63 133 0.0 0.0 0.00 0.00 0.00 87 1012.7
20260901081353 63 132 0.0 0.0 0.00 0.00 0.00 87 1012.7
20260901080827 63 133 0.0 0.0 0.00 0.00 0.00 87 1012.8
20260901080329 63 133 0.0 0.0 0.00 0.00 0.00 86 1012.9
20260901075828 63 133 0.0 0.0 0.00 0.00 0.00 86 1012.9
20260901075344 63 133 0.0 0.0 0.00 0.00 0.00 86 1013.1
20260901074823 64 133 0.0 0.0 0.00 0.00 0.00 86 1013.1
20260901074345 64 133 0.0 0.0 0.00 0.00 0.00 85 1013.1
20260901073823 64 133 0.0 0.0 0.00 0.00 0.00 85 1013.1
20260901073324 64 133 0.0 0.0 0.00 0.00 0.00 85 1013.2
20260901072822 64 132 0.0 0.0 0.00 0.00 0.00 85 1013.2
20260901072338 64 133 0.0 0.0 0.00 0.00 0.00 85 1013.2
20260901071835 64 133 0.0 0.0 0.00 0.00 0.00 84 1013.2
20260901071336 64 133 0.0 0.0 0.00 0.00 0.00 84 1013.1
20260901070833 64 133 0.0 0.0 0.00 0.00 0.00 84 1013.0
20260901070336 65 133 0.0 0.0 0.00 0.00 0.00 84 1013.0
20260901065836 65 133 0.0 0.0 0.00 0.00 0.00 82 1013.0
20260901065339 65 133 0.0 0.0 0.00 0.00 0.00 82 1012.9
20260901064835 65 133 0.0 0.0 0.00 0.00 0.00 81 1012.8
20260901064358 65 133 0.0 0.0 0.00 0.00 0.00 81 1012.8
20260901063820 65 133 0.0 0.0 0.00 0.00 0.00 80 1012.8
20260901063323 65 133 0.0 0.0 0.00 0.00 0.00 79 1012.7
20260901062824 66 133 0.0 0.0 0.00 0.00 0.00 79 1012.7
20260901062327 66 133 0.0 0.0 0.00 0.00 0.00 79 1012.7
20260901061828 66 133 0.0 0.0 0.00 0.00 0.00 78 1012.8
20260901061333 66 133 0.0 0.0 0.00 0.00 0.00 78 1012.8
20260901060832 66 133 0.0 0.0 0.00 0.00 0.00 78 1012.8
20260901060335 66 133 0.0 0.0 0.00 0.00 0.00 77 1012.8
20260901055338 66 133 0.0 0.0 0.00 0.00 0.00 77 1012.7
20260901054838 67 133 0.0 0.0 0.00 0.00 0.00 76 1012.7
20260901054339 67 133 0.0 0.0 0.00 0.00 0.00 76 1012.6
20260901053819 67 133 0.0 0.0 0.00 0.00 0.00 76 1012.7
20260901053339 67 133 0.0 0.0 0.00 0.00 0.00 76 1012.7
20260901052859 67 133 0.0 0.0 0.00 0.00 0.00 75 1012.6
20260901052320 68 133 0.0 0.0 0.00 0.00 0.00 74 1012.6
20260901051821 68 133 0.0 0.0 0.00 0.00 0.00 74 1012.5
20260901051325 69 133 0.0 0.0 0.00 0.00 0.00 74 1012.5
20260901050848 68 133 0.0 0.0 0.00 0.00 0.00 74 1012.6
20260901050328 69 133 0.0 0.0 0.00 0.00 0.00 71 1012.5
20260901045832 69 133 0.0 0.0 0.00 0.00 0.00 71 1012.5
20260901045336 69 130 0.0 0.0 0.00 0.00 0.00 70 1012.4
20260901044838 69 130 0.0 0.0 0.00 0.00 0.00 69 1012.3
20260901044337 69 130 0.0 0.0 0.00 0.00 0.00 69 1012.2
20260901043842 70 130 0.0 0.0 0.00 0.00 0.00 68 1012.2
20260901042841 71 130 0.0 0.0 0.00 0.00 0.00 68 1012.1
20260901042323 71 130 0.0 0.0 0.00 0.00 0.00 68 1012.0
20260901041824 71 130 0.0 0.0 0.00 0.00 0.00 68 1012.0
20260901040821 71 130 0.0 0.0 0.00 0.00 0.00 67 1012.0
20260901035828 72 108 0.0 0.0 0.00 0.00 0.00 65 1011.8
20260901035331 72 69 0.0 0.0 0.00 0.00 0.00 64 1011.7
20260901034829 72 63 0.0 0.0 0.00 0.00 0.00 64 1011.6
20260901034329 72 267 0.0 0.0 0.00 0.00 0.00 63 1011.4
20260901033831 72 267 0.0 0.0 0.00 0.00 0.00 63 1011.3
20260901033332 72 267 0.0 0.0 0.00 0.00 0.00 63 1011.3
20260901032832 72 267 0.0 0.0 0.00 0.00 0.00 63 1011.3
20260901032334 73 267 0.0 0.0 0.00 0.00 0.00 62 1011.1
20260901031833 73 267 0.0 0.0 0.00 0.00 0.00 61 1010.9
20260901031356 74 267 0.0 0.0 0.00 0.00 0.00 60 1010.9
20260901030833 74 267 0.0 0.0 0.00 0.00 0.00 59 1010.8
20260901030322 75 267 0.0 0.0 0.00 0.00 0.00 59 1010.9
20260901025823 75 267 0.0 0.0 0.00 0.00 0.00 58 1010.9
20260901025324 75 267 0.0 0.0 0.00 0.00 0.00 57 1011.0
20260901024826 76 273 0.0 0.0 0.00 0.00 0.00 57 1011.1
20260901024328 76 273 0.0 0.0 0.00 0.00 0.00 56 1011.0
20260901023830 76 273 0.0 0.0 0.00 0.00 0.00 55 1011.0
20260901023330 77 257 0.0 0.0 0.00 0.00 0.00 55 1011.0
20260901022829 77 269 0.0 0.0 0.00 0.00 0.00 54 1011.0
20260901022352 77 279 0.0 0.0 0.00 0.00 0.00 54 1010.9
20260901021829 78 259 0.0 0.0 0.00 0.00 0.00 54 1010.9
20260901021329 78 242 0.0 1.0 0.00 0.00 0.00 53 1010.9
20260901020829 78 259 0.0 2.0 0.00 0.00 0.00 53 1010.8
20260901020331 79 272 1.0 2.0 0.00 0.00 0.00 53 1010.9
20260901015834 79 212 0.0 2.0 0.00 0.00 0.00 53 1010.9
20260901015334 79 273 0.0 2.0 0.00 0.00 0.00 52 1010.9
20260901014820 80 230 1.0 3.0 0.00 0.00 0.00 52 1010.7
20260901014323 80 258 0.0 3.0 0.00 0.00 0.00 53 1010.8
20260901013826 81 232 0.0 3.0 0.00 0.00 0.00 53 1010.7
20260901013326 81 261 1.0 3.0 0.00 0.00 0.00 52 1010.8
20260901012847 81 252 0.0 3.0 0.00 0.00 0.00 51 1010.8
20260901012327 82 143 1.0 3.0 0.00 0.00 0.00 51 1010.9
20260901011826 82 278 1.0 2.0 0.00 0.00 0.00 51 1010.8
20260901011347 82 257 1.0 5.0 0.00 0.00 0.00 50 1010.8
20260901010850 82 248 2.0 5.0 0.00 0.00 0.00 47 1010.8
20260901010330 82 154 1.0 5.0 0.00 0.00 0.00 47 1010.9
20260901005830 83 259 2.0 5.0 0.00 0.00 0.00 48 1010.9
20260901005334 83 156 2.0 5.0 0.00 0.00 0.00 48 1011.0
20260901004837 83 172 1.0 6.0 0.00 0.00 0.00 47 1010.9
20260901003836 84 259 2.0 7.0 0.00 0.00 0.00 47 1010.8
20260901003323 83 166 1.0 7.0 0.00 0.00 0.00 48 1010.8